Year,Month,Day,Hour,Minute,Value (Times are PST for temperature in C)
2011,09,16,00,00,10.80
2011,09,16,00,01,10.80
2011,09,16,00,02,10.90
2011,09,16,00,03,10.90
2011,09,16,00,04,10.90
2011,09,16,00,05,10.90
2011,09,16,00,06,10.90
2011,09,16,00,07,10.90
2011,09,16,00,08,10.90
2011,09,16,00,09,10.80
2011,09,16,00,10,10.80
2011,09,16,00,11,10.80
2011,09,16,00,12,10.80
2011,09,16,00,13,10.80
2011,09,16,00,14,10.90
2011,09,16,00,15,10.90
2011,09,16,00,16,10.80
2011,09,16,00,17,10.90
2011,09,16,00,18,10.90
2011,09,16,00,19,10.90
2011,09,16,00,20,10.90
2011,09,16,00,21,10.90
2011,09,16,00,22,10.90
2011,09,16,00,23,10.90
2011,09,16,00,24,10.90
2011,09,16,00,25,10.90
2011,09,16,00,26,10.90
2011,09,16,00,27,10.90
2011,09,16,00,28,10.90
2011,09,16,00,29,10.80
2011,09,16,00,30,10.80
2011,09,16,00,31,10.80
2011,09,16,00,32,10.80
2011,09,16,00,33,10.80
2011,09,16,00,34,10.80
2011,09,16,00,35,10.80
2011,09,16,00,36,10.80
2011,09,16,00,37,10.80
2011,09,16,00,38,10.80
2011,09,16,00,39,10.80
2011,09,16,00,40,10.80
2011,09,16,00,41,10.80
2011,09,16,00,42,10.80
2011,09,16,00,43,10.80
2011,09,16,00,44,10.80
2011,09,16,00,45,10.80
2011,09,16,00,46,10.80
2011,09,16,00,47,10.80
2011,09,16,00,48,10.80
2011,09,16,00,49,10.80
2011,09,16,00,50,10.80
2011,09,16,00,51,10.80
2011,09,16,00,52,10.80
2011,09,16,00,53,10.80
2011,09,16,00,54,10.80
2011,09,16,00,55,10.80
2011,09,16,00,56,10.80
2011,09,16,00,57,10.70
2011,09,16,00,58,10.70
2011,09,16,00,59,10.70
2011,09,16,01,00,10.70
2011,09,16,01,01,10.70
2011,09,16,01,02,10.70
2011,09,16,01,03,10.70
2011,09,16,01,04,10.70
2011,09,16,01,05,10.70
2011,09,16,01,06,10.70
2011,09,16,01,07,10.80
2011,09,16,01,08,10.70
2011,09,16,01,09,10.70
2011,09,16,01,10,10.70
2011,09,16,01,11,10.70
2011,09,16,01,12,10.70
2011,09,16,01,13,10.70
2011,09,16,01,14,10.70
2011,09,16,01,15,10.70
2011,09,16,01,16,10.70
2011,09,16,01,17,10.70
2011,09,16,01,18,10.70
2011,09,16,01,19,10.70
2011,09,16,01,20,10.70
2011,09,16,01,21,10.70
2011,09,16,01,22,10.70
2011,09,16,01,23,10.70
2011,09,16,01,24,10.70
2011,09,16,01,25,10.70
2011,09,16,01,26,10.70
2011,09,16,01,27,10.70
2011,09,16,01,28,10.70
2011,09,16,01,29,10.70
2011,09,16,01,30,10.70
2011,09,16,01,31,10.70
2011,09,16,01,32,10.70
2011,09,16,01,33,10.70
2011,09,16,01,34,10.70
2011,09,16,01,35,10.70
2011,09,16,01,36,10.70
2011,09,16,01,37,10.70
2011,09,16,01,38,10.70
2011,09,16,01,39,10.60
2011,09,16,01,40,10.60
2011,09,16,01,41,10.60
2011,09,16,01,42,10.60
2011,09,16,01,43,10.60
2011,09,16,01,44,10.60
2011,09,16,01,45,10.60
2011,09,16,01,46,10.60
2011,09,16,01,47,10.60
2011,09,16,01,48,10.60
2011,09,16,01,49,10.60
2011,09,16,01,50,10.60
2011,09,16,01,51,10.60
2011,09,16,01,52,10.60
2011,09,16,01,53,10.60
2011,09,16,01,54,10.60
2011,09,16,01,55,10.60
2011,09,16,01,56,10.50
2011,09,16,01,57,10.40
2011,09,16,01,58,10.40
2011,09,16,01,59,10.40
2011,09,16,02,00,10.40
2011,09,16,02,01,10.40
2011,09,16,02,02,10.40
2011,09,16,02,03,10.40
2011,09,16,02,04,10.40
2011,09,16,02,05,10.40
2011,09,16,02,06,10.40
2011,09,16,02,07,10.40
2011,09,16,02,08,10.40
2011,09,16,02,09,10.40
2011,09,16,02,10,10.40
2011,09,16,02,11,10.30
2011,09,16,02,12,10.30
2011,09,16,02,13,10.30
2011,09,16,02,14,10.30
2011,09,16,02,15,10.30
2011,09,16,02,16,10.30
2011,09,16,02,17,10.30
2011,09,16,02,18,10.30
2011,09,16,02,19,10.20
2011,09,16,02,20,10.20
2011,09,16,02,21,10.20
2011,09,16,02,22,10.20
2011,09,16,02,23,10.20
2011,09,16,02,24,10.10
2011,09,16,02,25,10.10
2011,09,16,02,26,10.10
2011,09,16,02,27,10.10
2011,09,16,02,28,10.10
2011,09,16,02,29,10.20
2011,09,16,02,30,10.10
2011,09,16,02,31,10.10
2011,09,16,02,32,10.10
2011,09,16,02,33,10.10
2011,09,16,02,34,10.10
2011,09,16,02,35,10.10
2011,09,16,02,36,10.10
2011,09,16,02,37,10.10
2011,09,16,02,38,10.10
2011,09,16,02,39,10.00
2011,09,16,02,40,9.90
2011,09,16,02,41,9.90
2011,09,16,02,42,9.90
2011,09,16,02,43,9.80
2011,09,16,02,44,9.70
2011,09,16,02,45,9.70
2011,09,16,02,46,9.60
2011,09,16,02,47,9.60
2011,09,16,02,48,9.50
2011,09,16,02,49,9.50
2011,09,16,02,50,9.40
2011,09,16,02,51,9.40
2011,09,16,02,52,9.40
2011,09,16,02,53,9.30
2011,09,16,02,54,9.30
2011,09,16,02,55,9.20
2011,09,16,02,56,9.20
2011,09,16,02,57,9.10
2011,09,16,02,58,9.10
2011,09,16,02,59,9.00
2011,09,16,03,00,9.00
2011,09,16,03,01,9.00
2011,09,16,03,02,9.00
2011,09,16,03,03,9.00
2011,09,16,03,04,9.00
2011,09,16,03,05,9.20
2011,09,16,03,06,9.20
2011,09,16,03,07,9.20
2011,09,16,03,08,9.30
2011,09,16,03,09,9.30
2011,09,16,03,10,9.40
2011,09,16,03,11,9.50
2011,09,16,03,12,9.50
2011,09,16,03,13,9.60
2011,09,16,03,14,9.70
2011,09,16,03,15,9.70
2011,09,16,03,16,9.70
2011,09,16,03,17,9.70
2011,09,16,03,18,9.70
2011,09,16,03,19,9.60
2011,09,16,03,20,9.60
2011,09,16,03,21,9.50
2011,09,16,03,22,9.40
2011,09,16,03,23,9.30
2011,09,16,03,24,9.20
2011,09,16,03,25,9.20
2011,09,16,03,26,9.20
2011,09,16,03,27,9.10
2011,09,16,03,28,9.10
2011,09,16,03,29,9.10
2011,09,16,03,30,9.10
2011,09,16,03,31,9.20
2011,09,16,03,32,9.20
2011,09,16,03,33,9.20
2011,09,16,03,34,9.20
2011,09,16,03,35,9.20
2011,09,16,03,36,9.20
2011,09,16,03,37,9.20
2011,09,16,03,38,9.20
2011,09,16,03,39,9.20
2011,09,16,03,40,9.20
2011,09,16,03,41,9.20
2011,09,16,03,42,9.20
2011,09,16,03,43,9.30
2011,09,16,03,44,9.20
2011,09,16,03,45,9.20
2011,09,16,03,46,9.30
2011,09,16,03,47,9.30
2011,09,16,03,48,9.30
2011,09,16,03,49,9.30
2011,09,16,03,50,9.20
2011,09,16,03,51,9.20
2011,09,16,03,52,9.20
2011,09,16,03,53,9.20
2011,09,16,03,54,9.20
2011,09,16,03,55,9.20
2011,09,16,03,56,9.20
2011,09,16,03,57,9.20
2011,09,16,03,58,9.20
2011,09,16,03,59,9.10
2011,09,16,04,00,9.10
2011,09,16,04,01,9.00
2011,09,16,04,02,8.90
2011,09,16,04,03,8.90
2011,09,16,04,04,8.80
2011,09,16,04,05,8.80
2011,09,16,04,06,8.80
2011,09,16,04,07,8.80
2011,09,16,04,08,8.70
2011,09,16,04,09,8.70
2011,09,16,04,10,8.70
2011,09,16,04,11,8.70
2011,09,16,04,12,8.60
2011,09,16,04,13,8.70
2011,09,16,04,14,8.70
2011,09,16,04,15,8.60
2011,09,16,04,16,8.70
2011,09,16,04,17,8.80
2011,09,16,04,18,8.90
2011,09,16,04,19,9.00
2011,09,16,04,20,9.00
2011,09,16,04,21,9.20
2011,09,16,04,22,9.20
2011,09,16,04,23,9.20
2011,09,16,04,24,9.20
2011,09,16,04,25,9.20
2011,09,16,04,26,9.20
2011,09,16,04,27,9.10
2011,09,16,04,28,9.00
2011,09,16,04,29,9.00
2011,09,16,04,30,9.00
2011,09,16,04,31,9.00
2011,09,16,04,32,9.00
2011,09,16,04,33,9.00
2011,09,16,04,34,9.10
2011,09,16,04,35,9.10
2011,09,16,04,36,9.10
2011,09,16,04,37,9.10
2011,09,16,04,38,9.10
2011,09,16,04,39,9.10
2011,09,16,04,40,9.20
2011,09,16,04,41,9.20
2011,09,16,04,42,9.20
2011,09,16,04,43,9.20
2011,09,16,04,44,9.20
2011,09,16,04,45,9.20
2011,09,16,04,46,9.20
2011,09,16,04,47,9.20
2011,09,16,04,48,9.20
2011,09,16,04,49,9.20
2011,09,16,04,50,9.20
2011,09,16,04,51,9.20
2011,09,16,04,52,9.20
2011,09,16,04,53,9.20
2011,09,16,04,54,9.20
2011,09,16,04,55,9.20
2011,09,16,04,56,9.20
2011,09,16,04,57,9.20
2011,09,16,04,58,9.00
2011,09,16,04,59,8.90
2011,09,16,05,00,8.80
2011,09,16,05,01,8.80
2011,09,16,05,02,8.70
2011,09,16,05,03,8.70
2011,09,16,05,04,8.70
2011,09,16,05,05,8.70
2011,09,16,05,06,8.60
2011,09,16,05,07,8.60
2011,09,16,05,08,8.60
2011,09,16,05,09,8.60
2011,09,16,05,10,8.60
2011,09,16,05,11,8.60
2011,09,16,05,12,8.50
2011,09,16,05,13,8.50
2011,09,16,05,14,8.50
2011,09,16,05,15,8.50
2011,09,16,05,16,8.50
2011,09,16,05,17,8.50
2011,09,16,05,18,8.60
2011,09,16,05,19,8.60
2011,09,16,05,20,8.50
2011,09,16,05,21,8.50
2011,09,16,05,22,8.40
2011,09,16,05,23,8.40
2011,09,16,05,24,8.30
2011,09,16,05,25,8.30
2011,09,16,05,26,8.30
2011,09,16,05,27,8.30
2011,09,16,05,28,8.20
2011,09,16,05,29,8.20
2011,09,16,05,30,8.10
2011,09,16,05,31,8.10
2011,09,16,05,32,8.10
2011,09,16,05,33,8.00
2011,09,16,05,34,8.00
2011,09,16,05,35,8.00
2011,09,16,05,36,8.10
2011,09,16,05,37,8.10
2011,09,16,05,38,8.10
2011,09,16,05,39,8.10
2011,09,16,05,40,8.10
2011,09,16,05,41,8.10
2011,09,16,05,42,8.00
2011,09,16,05,43,8.00
2011,09,16,05,44,8.00
2011,09,16,05,45,8.00
2011,09,16,05,46,7.90
2011,09,16,05,47,7.90
2011,09,16,05,48,7.90
2011,09,16,05,49,8.00
2011,09,16,05,50,8.00
2011,09,16,05,51,8.00
2011,09,16,05,52,8.00
2011,09,16,05,53,7.90
2011,09,16,05,54,7.90
2011,09,16,05,55,7.90
2011,09,16,05,56,7.90
2011,09,16,05,57,7.80
2011,09,16,05,58,7.80
2011,09,16,05,59,7.80
2011,09,16,06,00,7.80
2011,09,16,06,01,7.80
2011,09,16,06,02,7.80
2011,09,16,06,03,7.80
2011,09,16,06,04,7.80
2011,09,16,06,05,7.80
2011,09,16,06,06,7.80
2011,09,16,06,07,7.80
2011,09,16,06,08,7.80
2011,09,16,06,09,7.80
2011,09,16,06,10,7.80
2011,09,16,06,11,7.80
2011,09,16,06,12,7.80
2011,09,16,06,13,7.80
2011,09,16,06,14,7.80
2011,09,16,06,15,7.80
2011,09,16,06,16,7.80
2011,09,16,06,17,7.80
2011,09,16,06,18,7.80
2011,09,16,06,19,7.80
2011,09,16,06,20,7.80
2011,09,16,06,21,7.80
2011,09,16,06,22,7.80
2011,09,16,06,23,7.80
2011,09,16,06,24,7.90
2011,09,16,06,25,7.90
2011,09,16,06,26,7.90
2011,09,16,06,27,7.90
2011,09,16,06,28,7.90
2011,09,16,06,29,7.80
2011,09,16,06,30,7.80
2011,09,16,06,31,7.80
2011,09,16,06,32,7.80
2011,09,16,06,33,7.80
2011,09,16,06,34,7.70
2011,09,16,06,35,7.70
2011,09,16,06,36,7.70
2011,09,16,06,37,7.70
2011,09,16,06,38,7.60
2011,09,16,06,39,7.60
2011,09,16,06,40,7.60
2011,09,16,06,41,7.60
2011,09,16,06,42,7.60
2011,09,16,06,43,7.50
2011,09,16,06,44,7.50
2011,09,16,06,45,7.40
2011,09,16,06,46,7.40
2011,09,16,06,47,7.30
2011,09,16,06,48,7.30
2011,09,16,06,49,7.30
2011,09,16,06,50,7.30
2011,09,16,06,51,7.20
2011,09,16,06,52,7.20
2011,09,16,06,53,7.20
2011,09,16,06,54,7.20
2011,09,16,06,55,7.10
2011,09,16,06,56,7.10
2011,09,16,06,57,7.10
2011,09,16,06,58,7.10
2011,09,16,06,59,7.10
2011,09,16,07,00,7.10
2011,09,16,07,01,7.10
2011,09,16,07,02,7.10
2011,09,16,07,03,7.10
2011,09,16,07,04,7.10
2011,09,16,07,05,7.10
2011,09,16,07,06,7.10
2011,09,16,07,07,7.10
2011,09,16,07,08,7.20
2011,09,16,07,09,7.20
2011,09,16,07,10,7.20
2011,09,16,07,11,7.20
2011,09,16,07,12,7.20
2011,09,16,07,13,7.30
2011,09,16,07,14,7.30
2011,09,16,07,15,7.30
2011,09,16,07,16,7.30
2011,09,16,07,17,7.30
2011,09,16,07,18,7.30
2011,09,16,07,19,7.30
2011,09,16,07,20,7.40
2011,09,16,07,21,7.40
2011,09,16,07,22,7.40
2011,09,16,07,23,7.40
2011,09,16,07,24,7.50
2011,09,16,07,25,7.50
2011,09,16,07,26,7.50
2011,09,16,07,27,7.60
2011,09,16,07,28,7.60
2011,09,16,07,29,7.60
2011,09,16,07,30,7.60
2011,09,16,07,31,7.60
2011,09,16,07,32,7.60
2011,09,16,07,33,7.60
2011,09,16,07,34,7.60
2011,09,16,07,35,7.60
2011,09,16,07,36,7.60
2011,09,16,07,37,7.70
2011,09,16,07,38,7.70
2011,09,16,07,39,7.70
2011,09,16,07,40,7.70
2011,09,16,07,41,7.70
2011,09,16,07,42,7.80
2011,09,16,07,43,7.80
2011,09,16,07,44,7.80
2011,09,16,07,45,7.80
2011,09,16,07,46,7.70
2011,09,16,07,47,7.70
2011,09,16,07,48,7.70
2011,09,16,07,49,7.70
2011,09,16,07,50,7.70
2011,09,16,07,51,7.70
2011,09,16,07,52,7.70
2011,09,16,07,53,7.60
2011,09,16,07,54,7.60
2011,09,16,07,55,7.60
2011,09,16,07,56,7.70
2011,09,16,07,57,7.70
2011,09,16,07,58,7.80
2011,09,16,07,59,7.80
2011,09,16,08,00,7.80
2011,09,16,08,01,7.80
2011,09,16,08,02,7.80
2011,09,16,08,03,7.90
2011,09,16,08,04,7.90
2011,09,16,08,05,7.90
2011,09,16,08,06,7.90
2011,09,16,08,07,8.00
2011,09,16,08,08,8.00
2011,09,16,08,09,8.00
2011,09,16,08,10,8.10
2011,09,16,08,11,8.10
2011,09,16,08,12,8.20
2011,09,16,08,13,8.30
2011,09,16,08,14,8.40
2011,09,16,08,15,8.40
2011,09,16,08,16,8.50
2011,09,16,08,17,8.60
2011,09,16,08,18,8.70
2011,09,16,08,19,8.80
2011,09,16,08,20,8.90
2011,09,16,08,21,8.90
2011,09,16,08,22,8.90
2011,09,16,08,23,9.00
2011,09,16,08,24,9.00
2011,09,16,08,25,9.00
2011,09,16,08,26,9.00
2011,09,16,08,27,9.10
2011,09,16,08,28,9.10
2011,09,16,08,29,9.10
2011,09,16,08,30,9.10
2011,09,16,08,31,9.10
2011,09,16,08,32,9.10
2011,09,16,08,33,9.10
2011,09,16,08,34,9.10
2011,09,16,08,35,9.10
2011,09,16,08,36,9.10
2011,09,16,08,37,9.10
2011,09,16,08,38,9.10
2011,09,16,08,39,9.10
2011,09,16,08,40,9.10
2011,09,16,08,41,9.10
2011,09,16,08,42,9.10
2011,09,16,08,43,9.10
2011,09,16,08,44,9.20
2011,09,16,08,45,9.20
2011,09,16,08,46,9.20
2011,09,16,08,47,9.20
2011,09,16,08,48,9.30
2011,09,16,08,49,9.30
2011,09,16,08,50,9.30
2011,09,16,08,51,9.40
2011,09,16,08,52,9.40
2011,09,16,08,53,9.50
2011,09,16,08,54,9.50
2011,09,16,08,55,9.50
2011,09,16,08,56,9.60
2011,09,16,08,57,9.60
2011,09,16,08,58,9.70
2011,09,16,08,59,9.60
2011,09,16,09,00,9.60
2011,09,16,09,01,9.70
2011,09,16,09,02,9.70
2011,09,16,09,03,9.70
2011,09,16,09,04,9.70
2011,09,16,09,05,9.70
2011,09,16,09,06,9.80
2011,09,16,09,07,9.80
2011,09,16,09,08,9.90
2011,09,16,09,09,9.90
2011,09,16,09,10,10.00
2011,09,16,09,11,10.10
2011,09,16,09,12,10.10
2011,09,16,09,13,10.20
2011,09,16,09,14,10.30
2011,09,16,09,15,10.30
2011,09,16,09,16,10.40
2011,09,16,09,17,10.40
2011,09,16,09,18,10.50
2011,09,16,09,19,10.60
2011,09,16,09,20,10.60
2011,09,16,09,21,10.70
2011,09,16,09,22,10.80
2011,09,16,09,23,10.80
2011,09,16,09,24,10.80
2011,09,16,09,25,10.90
2011,09,16,09,26,11.00
2011,09,16,09,27,11.10
2011,09,16,09,28,11.10
2011,09,16,09,29,11.20
2011,09,16,09,30,11.20
2011,09,16,09,31,11.30
2011,09,16,09,32,11.30
2011,09,16,09,33,11.40
2011,09,16,09,34,11.40
2011,09,16,09,35,11.40
2011,09,16,09,36,11.40
2011,09,16,09,37,11.50
2011,09,16,09,38,11.60
2011,09,16,09,39,11.60
2011,09,16,09,40,11.60
2011,09,16,09,41,11.60
2011,09,16,09,42,11.60
2011,09,16,09,43,11.50
2011,09,16,09,44,11.60
2011,09,16,09,45,11.60
2011,09,16,09,46,11.60
2011,09,16,09,47,11.60
2011,09,16,09,48,11.60
2011,09,16,09,49,11.60
2011,09,16,09,50,11.60
2011,09,16,09,51,11.60
2011,09,16,09,52,11.60
2011,09,16,09,53,11.60
2011,09,16,09,54,11.70
2011,09,16,09,55,11.70
2011,09,16,09,56,11.80
2011,09,16,09,57,11.70
2011,09,16,09,58,11.80
2011,09,16,09,59,11.80
2011,09,16,10,00,11.80
2011,09,16,10,01,11.80
2011,09,16,10,02,11.80
2011,09,16,10,03,11.80
2011,09,16,10,04,11.80
2011,09,16,10,05,11.90
2011,09,16,10,06,11.90
2011,09,16,10,07,11.90
2011,09,16,10,08,12.00
2011,09,16,10,09,12.00
2011,09,16,10,10,12.00
2011,09,16,10,11,12.00
2011,09,16,10,12,12.00
2011,09,16,10,13,12.00
2011,09,16,10,14,12.00
2011,09,16,10,15,12.10
2011,09,16,10,16,12.10
2011,09,16,10,17,12.10
2011,09,16,10,18,12.10
2011,09,16,10,19,12.10
2011,09,16,10,20,12.10
2011,09,16,10,21,12.20
2011,09,16,10,22,12.20
2011,09,16,10,23,12.30
2011,09,16,10,24,12.30
2011,09,16,10,25,12.50
2011,09,16,10,26,12.50
2011,09,16,10,27,12.60
2011,09,16,10,28,12.70
2011,09,16,10,29,12.70
2011,09,16,10,30,12.80
2011,09,16,10,31,12.80
2011,09,16,10,32,12.80
2011,09,16,10,33,12.80
2011,09,16,10,34,12.80
2011,09,16,10,35,12.80
2011,09,16,10,36,12.80
2011,09,16,10,37,12.80
2011,09,16,10,38,12.80
2011,09,16,10,39,12.80
2011,09,16,10,40,12.80
2011,09,16,10,41,12.80
2011,09,16,10,42,12.80
2011,09,16,10,43,12.80
2011,09,16,10,44,12.80
2011,09,16,10,45,12.90
2011,09,16,10,46,12.90
2011,09,16,10,47,13.00
2011,09,16,10,48,13.10
2011,09,16,10,49,13.20
2011,09,16,10,50,13.20
2011,09,16,10,51,13.20
2011,09,16,10,52,13.30
2011,09,16,10,53,13.30
2011,09,16,10,54,13.30
2011,09,16,10,55,13.40
2011,09,16,10,56,13.40
2011,09,16,10,57,13.40
2011,09,16,10,58,13.40
2011,09,16,10,59,13.50
2011,09,16,11,00,13.50
2011,09,16,11,01,13.50
2011,09,16,11,02,13.50
2011,09,16,11,03,13.50
2011,09,16,11,04,13.50
2011,09,16,11,05,13.60
2011,09,16,11,06,13.60
2011,09,16,11,07,13.60
2011,09,16,11,08,13.70
2011,09,16,11,09,13.70
2011,09,16,11,10,13.70
2011,09,16,11,11,13.70
2011,09,16,11,12,13.70
2011,09,16,11,13,13.80
2011,09,16,11,14,13.80
2011,09,16,11,15,13.80
2011,09,16,11,16,13.80
2011,09,16,11,17,13.80
2011,09,16,11,18,13.80
2011,09,16,11,19,13.80
2011,09,16,11,20,13.80
2011,09,16,11,21,13.80
2011,09,16,11,22,13.80
2011,09,16,11,23,13.90
2011,09,16,11,24,13.90
2011,09,16,11,25,13.90
2011,09,16,11,26,13.90
2011,09,16,11,27,13.90
2011,09,16,11,28,14.00
2011,09,16,11,29,14.00
2011,09,16,11,30,14.10
2011,09,16,11,31,14.20
2011,09,16,11,32,14.20
2011,09,16,11,33,14.30
2011,09,16,11,34,14.30
2011,09,16,11,35,14.30
2011,09,16,11,36,14.40
2011,09,16,11,37,14.40
2011,09,16,11,38,14.40
2011,09,16,11,39,14.40
2011,09,16,11,40,14.40
2011,09,16,11,41,14.40
2011,09,16,11,42,14.40
2011,09,16,11,43,14.40
2011,09,16,11,44,14.40
2011,09,16,11,45,14.40
2011,09,16,11,46,14.30
2011,09,16,11,47,14.30
2011,09,16,11,48,14.30
2011,09,16,11,49,14.30
2011,09,16,11,50,14.30
2011,09,16,11,51,14.30
2011,09,16,11,52,14.30
2011,09,16,11,53,14.30
2011,09,16,11,54,14.20
2011,09,16,11,55,14.20
2011,09,16,11,56,14.20
2011,09,16,11,57,14.20
2011,09,16,11,58,14.20
2011,09,16,11,59,14.20
2011,09,16,12,00,14.20
2011,09,16,12,01,14.20
2011,09,16,12,02,14.20
2011,09,16,12,03,14.20
2011,09,16,12,04,14.20
2011,09,16,12,05,14.20
2011,09,16,12,06,14.20
2011,09,16,12,07,14.20
2011,09,16,12,08,14.20
2011,09,16,12,09,14.20
2011,09,16,12,10,14.20
2011,09,16,12,11,14.20
2011,09,16,12,12,14.20
2011,09,16,12,13,14.20
2011,09,16,12,14,14.20
2011,09,16,12,15,14.20
2011,09,16,12,16,14.20
2011,09,16,12,17,14.20
2011,09,16,12,18,14.20
2011,09,16,12,19,14.20
2011,09,16,12,20,14.20
2011,09,16,12,21,14.20
2011,09,16,12,22,14.20
2011,09,16,12,23,14.20
2011,09,16,12,24,14.20
2011,09,16,12,25,14.20
2011,09,16,12,26,14.20
2011,09,16,12,27,14.30
2011,09,16,12,28,14.30
2011,09,16,12,29,14.30
2011,09,16,12,30,14.40
2011,09,16,12,31,14.40
2011,09,16,12,32,14.40
2011,09,16,12,33,14.40
2011,09,16,12,34,14.40
2011,09,16,12,35,14.30
2011,09,16,12,36,14.30
2011,09,16,12,37,14.30
2011,09,16,12,38,14.40
2011,09,16,12,39,14.40
2011,09,16,12,40,14.40
2011,09,16,12,41,14.40
2011,09,16,12,42,14.50
2011,09,16,12,43,14.50
2011,09,16,12,44,14.40
2011,09,16,12,45,14.40
2011,09,16,12,46,14.50
2011,09,16,12,47,14.50
2011,09,16,12,48,14.40
2011,09,16,12,49,14.50
2011,09,16,12,50,14.50
2011,09,16,12,51,14.40
2011,09,16,12,52,14.40
2011,09,16,12,53,14.40
2011,09,16,12,54,14.40
2011,09,16,12,55,14.40
2011,09,16,12,56,14.40
2011,09,16,12,57,14.40
2011,09,16,12,58,14.40
2011,09,16,12,59,14.40
2011,09,16,13,00,14.40
2011,09,16,13,01,14.40
2011,09,16,13,02,14.40
2011,09,16,13,03,14.40
2011,09,16,13,04,14.40
2011,09,16,13,05,14.40
2011,09,16,13,06,14.40
2011,09,16,13,07,14.30
2011,09,16,13,08,14.30
2011,09,16,13,09,14.30
2011,09,16,13,10,14.20
2011,09,16,13,11,14.20
2011,09,16,13,12,14.20
2011,09,16,13,13,14.20
2011,09,16,13,14,14.20
2011,09,16,13,15,14.20
2011,09,16,13,16,14.20
2011,09,16,13,17,14.20
2011,09,16,13,18,14.20
2011,09,16,13,19,14.20
2011,09,16,13,20,14.20
2011,09,16,13,21,14.20
2011,09,16,13,22,14.20
2011,09,16,13,23,14.20
2011,09,16,13,24,14.20
2011,09,16,13,25,14.20
2011,09,16,13,26,14.20
2011,09,16,13,27,14.20
2011,09,16,13,28,14.20
2011,09,16,13,29,14.20
2011,09,16,13,30,14.20
2011,09,16,13,31,14.20
2011,09,16,13,32,14.20
2011,09,16,13,33,14.20
2011,09,16,13,34,14.20
2011,09,16,13,35,14.20
2011,09,16,13,36,14.30
2011,09,16,13,37,14.30
2011,09,16,13,38,14.30
2011,09,16,13,39,14.30
2011,09,16,13,40,14.40
2011,09,16,13,41,14.30
2011,09,16,13,42,14.30
2011,09,16,13,43,14.30
2011,09,16,13,44,14.20
2011,09,16,13,45,14.20
2011,09,16,13,46,14.20
2011,09,16,13,47,14.20
2011,09,16,13,48,14.20
2011,09,16,13,49,14.20
2011,09,16,13,50,14.20
2011,09,16,13,51,14.20
2011,09,16,13,52,14.20
2011,09,16,13,53,14.20
2011,09,16,13,54,14.20
2011,09,16,13,55,14.20
2011,09,16,13,56,14.20
2011,09,16,13,57,14.20
2011,09,16,13,58,14.20
2011,09,16,13,59,14.10
2011,09,16,14,00,14.20
2011,09,16,14,01,14.20
2011,09,16,14,02,14.20
2011,09,16,14,03,14.20
2011,09,16,14,04,14.20
2011,09,16,14,05,14.30
2011,09,16,14,06,14.40
2011,09,16,14,07,14.40
2011,09,16,14,08,14.50
2011,09,16,14,09,14.50
2011,09,16,14,10,14.50
2011,09,16,14,11,14.50
2011,09,16,14,12,14.50
2011,09,16,14,13,14.60
2011,09,16,14,14,14.60
2011,09,16,14,15,14.60
2011,09,16,14,16,14.60
2011,09,16,14,17,14.60
2011,09,16,14,18,14.60
2011,09,16,14,19,14.60
2011,09,16,14,20,14.50
2011,09,16,14,21,14.50
2011,09,16,14,22,14.40
2011,09,16,14,23,14.40
2011,09,16,14,24,14.50
2011,09,16,14,25,14.50
2011,09,16,14,26,14.50
2011,09,16,14,27,14.50
2011,09,16,14,28,14.50
2011,09,16,14,29,14.50
2011,09,16,14,30,14.50
2011,09,16,14,31,14.50
2011,09,16,14,32,14.50
2011,09,16,14,33,14.50
2011,09,16,14,34,14.50
2011,09,16,14,35,14.50
2011,09,16,14,36,14.50
2011,09,16,14,37,14.40
2011,09,16,14,38,14.40
2011,09,16,14,39,14.30
2011,09,16,14,40,14.20
2011,09,16,14,41,14.20
2011,09,16,14,42,14.10
2011,09,16,14,43,14.00
2011,09,16,14,44,13.80
2011,09,16,14,45,13.70
2011,09,16,14,46,13.50
2011,09,16,14,47,13.50
2011,09,16,14,48,13.40
2011,09,16,14,49,13.30
2011,09,16,14,50,13.30
2011,09,16,14,51,13.30
2011,09,16,14,52,13.30
2011,09,16,14,53,13.30
2011,09,16,14,54,13.30
2011,09,16,14,55,13.30
2011,09,16,14,56,13.30
2011,09,16,14,57,13.40
2011,09,16,14,58,13.40
2011,09,16,14,59,13.50
2011,09,16,15,00,13.50
2011,09,16,15,01,13.60
2011,09,16,15,02,13.70
2011,09,16,15,03,13.70
2011,09,16,15,04,13.70
2011,09,16,15,05,13.80
2011,09,16,15,06,13.90
2011,09,16,15,07,14.00
2011,09,16,15,08,14.00
2011,09,16,15,09,14.20
2011,09,16,15,10,14.30
2011,09,16,15,11,14.40
2011,09,16,15,12,14.60
2011,09,16,15,13,14.70
2011,09,16,15,14,14.80
2011,09,16,15,15,14.80
2011,09,16,15,16,14.90
2011,09,16,15,17,15.00
2011,09,16,15,18,15.10
2011,09,16,15,19,15.20
2011,09,16,15,20,15.30
2011,09,16,15,21,15.40
2011,09,16,15,22,15.40
2011,09,16,15,23,15.30
2011,09,16,15,24,15.20
2011,09,16,15,25,15.20
2011,09,16,15,26,15.30
2011,09,16,15,27,15.20
2011,09,16,15,28,15.20
2011,09,16,15,29,15.20
2011,09,16,15,30,15.20
2011,09,16,15,31,15.20
2011,09,16,15,32,15.10
2011,09,16,15,33,15.10
2011,09,16,15,34,15.10
2011,09,16,15,35,15.10
2011,09,16,15,36,15.10
2011,09,16,15,37,15.10
2011,09,16,15,38,15.00
2011,09,16,15,39,15.00
2011,09,16,15,40,15.00
2011,09,16,15,41,15.00
2011,09,16,15,42,15.00
2011,09,16,15,43,15.00
2011,09,16,15,44,15.00
2011,09,16,15,45,15.00
2011,09,16,15,46,15.00
2011,09,16,15,47,15.10
2011,09,16,15,48,15.00
2011,09,16,15,49,15.10
2011,09,16,15,50,15.10
2011,09,16,15,51,15.10
2011,09,16,15,52,15.20
2011,09,16,15,53,15.20
2011,09,16,15,54,15.30
2011,09,16,15,55,15.30
2011,09,16,15,56,15.30
2011,09,16,15,57,15.30
2011,09,16,15,58,15.30
2011,09,16,15,59,15.30
2011,09,16,16,00,15.30
2011,09,16,16,01,15.30
2011,09,16,16,02,15.30
2011,09,16,16,03,15.30
2011,09,16,16,04,15.30
2011,09,16,16,05,15.30
2011,09,16,16,06,15.30
2011,09,16,16,07,15.40
2011,09,16,16,08,15.40
2011,09,16,16,09,15.30
2011,09,16,16,10,15.30
2011,09,16,16,11,15.30
2011,09,16,16,12,15.30
2011,09,16,16,13,15.20
2011,09,16,16,14,15.20
2011,09,16,16,15,15.10
2011,09,16,16,16,15.10
2011,09,16,16,17,15.10
2011,09,16,16,18,15.10
2011,09,16,16,19,15.10
2011,09,16,16,20,15.10
2011,09,16,16,21,15.10
2011,09,16,16,22,15.10
2011,09,16,16,23,15.20
2011,09,16,16,24,15.20
2011,09,16,16,25,15.10
2011,09,16,16,26,15.10
2011,09,16,16,27,15.20
2011,09,16,16,28,15.20
2011,09,16,16,29,15.20
2011,09,16,16,30,15.20
2011,09,16,16,31,15.10
2011,09,16,16,32,15.10
2011,09,16,16,33,15.20
2011,09,16,16,34,15.10
2011,09,16,16,35,15.10
2011,09,16,16,36,15.10
2011,09,16,16,37,15.10
2011,09,16,16,38,15.10
2011,09,16,16,39,15.20
2011,09,16,16,40,15.20
2011,09,16,16,41,15.20
2011,09,16,16,42,15.30
2011,09,16,16,43,15.20
2011,09,16,16,44,15.20
2011,09,16,16,45,15.20
2011,09,16,16,46,15.20
2011,09,16,16,47,15.20
2011,09,16,16,48,15.20
2011,09,16,16,49,15.20
2011,09,16,16,50,15.20
2011,09,16,16,51,15.20
2011,09,16,16,52,15.30
2011,09,16,16,53,15.30
2011,09,16,16,54,15.30
2011,09,16,16,55,15.30
2011,09,16,16,56,15.30
2011,09,16,16,57,15.30
2011,09,16,16,58,15.30
2011,09,16,16,59,15.30
2011,09,16,17,00,15.30
2011,09,16,17,01,15.30
2011,09,16,17,02,15.30
2011,09,16,17,03,15.30
2011,09,16,17,04,15.30
2011,09,16,17,05,15.30
2011,09,16,17,06,15.30
2011,09,16,17,07,15.30
2011,09,16,17,08,15.30
2011,09,16,17,09,15.30
2011,09,16,17,10,15.30
2011,09,16,17,11,15.30
2011,09,16,17,12,15.30
2011,09,16,17,13,15.30
2011,09,16,17,14,15.30
2011,09,16,17,15,15.30
2011,09,16,17,16,15.30
2011,09,16,17,17,15.30
2011,09,16,17,18,15.30
2011,09,16,17,19,15.30
2011,09,16,17,20,15.30
2011,09,16,17,21,15.20
2011,09,16,17,22,15.20
2011,09,16,17,23,15.30
2011,09,16,17,24,15.30
2011,09,16,17,25,15.30
2011,09,16,17,26,15.30
2011,09,16,17,27,15.30
2011,09,16,17,28,15.30
2011,09,16,17,29,15.30
2011,09,16,17,30,15.30
2011,09,16,17,31,15.30
2011,09,16,17,32,15.30
2011,09,16,17,33,15.30
2011,09,16,17,34,15.30
2011,09,16,17,35,15.30
2011,09,16,17,36,15.30